When you browse on this site, cookies collect data to enhance your experience and personalize the content and advertising you see.
Visit our Privacy Policy to learn more. By continuing to use the site, you agree to this use of cookies and data.
  • In Austria
  • List of Countries
  • For 7 days
  • Water Temperature
  • Satellite Maps
  • Weather Map
  • News
  • Weather Widgets
  • user-avatar
    Login

    Hourly Weather Warsaw

    Today, 26 May, Sunday

    Time Temperature Precipitation Wind Pressure Humidity
    00:00 +12°C° 0 mm 2 mps 751 mmHg 83%
    01:00 +12°C° 0 mm 2 mps 751 mmHg 84%
    02:00 +10°C° 0 mm 2 mps 751 mmHg 85%
    03:00 +10°C° 0 mm 2 mps 751 mmHg 85%
    04:00 +9°C° 0 mm 2 mps 752 mmHg 85%
    05:00 +11°C° 0 mm 3 mps 751 mmHg 80%
    06:00 +12°C° 0 mm 3 mps 751 mmHg 75%
    07:00 +14°C° 0 mm 3 mps 751 mmHg 70%
    08:00 +14°C° 0 mm 3 mps 751 mmHg 69%
    09:00 +14°C° 0 mm 4 mps 751 mmHg 68%
    10:00 +15°C° 0 mm 4 mps 751 mmHg 67%
    11:00 +17°C° 0 mm 4 mps 751 mmHg 65%
    12:00 +17°C° 0 mm 4 mps 751 mmHg 62%
    13:00 +18°C° 0 mm 4 mps 750 mmHg 60%
    14:00 +19°C° 0 mm 4 mps 750 mmHg 58%
    15:00 +20°C° 0 mm 5 mps 750 mmHg 57%
    16:00 +20°C° 0 mm 5 mps 749 mmHg 55%
    17:00 +19°C° 0 mm 4 mps 749 mmHg 59%
    18:00 +18°C° 0 mm 3 mps 749 mmHg 64%
    19:00 +17°C° 0 mm 2 mps 749 mmHg 68%
    20:00 +17°C° 0 mm 3 mps 749 mmHg 71%
    21:00 +16°C° 0 mm 3 mps 749 mmHg 73%
    22:00 +14°C° 0 mm 3 mps 750 mmHg 76%
    23:00 +14°C° 0 mm 3 mps 749 mmHg 78%

    Tomorrow, 27 May, Monday

    Time Temperature Precipitation Wind Pressure Humidity
    00:00 +14°C° 0 mm 3 mps 749 mmHg 79%
    01:00 +13°C° 0 mm 3 mps 749 mmHg 80%
    02:00 +13°C° 0 mm 3 mps 749 mmHg 82%
    03:00 +13°C° 0 mm 3 mps 749 mmHg 84%
    04:00 +13°C° 0 mm 3 mps 748 mmHg 85%
    05:00 +15°C° 0 mm 4 mps 748 mmHg 80%
    06:00 +18°C° 0 mm 4 mps 748 mmHg 75%
    07:00 +19°C° 0 mm 4 mps 748 mmHg 70%
    08:00 +21°C° 0 mm 4 mps 748 mmHg 63%
    09:00 +23°C° 0 mm 5 mps 748 mmHg 56%
    10:00 +25°C° 0 mm 5 mps 748 mmHg 49%
    11:00 +26°C° 0.1 mm 5 mps 748 mmHg 49%
    12:00 +26°C° 0.1 mm 5 mps 748 mmHg 50%
    13:00 +26°C° 0.1 mm 5 mps 747 mmHg 50%
    14:00 +26°C° 0.3 mm 5 mps 747 mmHg 52%
    15:00 +26°C° 0.3 mm 5 mps 747 mmHg 53%
    16:00 +26°C° 0.3 mm 4 mps 747 mmHg 55%
    17:00 +25°C° 0.2 mm 4 mps 747 mmHg 60%
    18:00 +24°C° 0.2 mm 3 mps 747 mmHg 66%
    19:00 +21°C° 0.2 mm 3 mps 747 mmHg 72%
    20:00 +20°C° 0.2 mm 2 mps 747 mmHg 76%
    21:00 +20°C° 0.2 mm 2 mps 747 mmHg 80%
    22:00 +19°C° 0.2 mm 2 mps 747 mmHg 85%
    23:00 +18°C° 0.3 mm 2 mps 747 mmHg 86%

    Day after tomorrow, 28 May, Tuesday

    Time Temperature Precipitation Wind Pressure Humidity
    00:00 +18°C° 0.3 mm 2 mps 747 mmHg 88%
    01:00 +19°C° 0.3 mm 1 mps 746 mmHg 90%
    02:00 +17°C° 0.1 mm 2 mps 746 mmHg 90%
    03:00 +17°C° 0.1 mm 2 mps 746 mmHg 91%
    04:00 +17°C° 0.1 mm 2 mps 745 mmHg 92%
    05:00 +17°C° 0.4 mm 3 mps 745 mmHg 90%
    06:00 +18°C° 0.4 mm 3 mps 745 mmHg 89%
    07:00 +19°C° 0.4 mm 3 mps 744 mmHg 88%
    08:00 +20°C° 0.2 mm 4 mps 744 mmHg 81%
    09:00 +22°C° 0.2 mm 4 mps 744 mmHg 75%
    10:00 +23°C° 0.2 mm 4 mps 744 mmHg 68%
    11:00 +25°C° 0.3 mm 4 mps 744 mmHg 65%
    12:00 +26°C° 0.3 mm 4 mps 743 mmHg 61%
    13:00 +27°C° 0.3 mm 4 mps 743 mmHg 57%
    14:00 +25°C° 1.4 mm 3 mps 743 mmHg 65%
    15:00 +22°C° 1.4 mm 3 mps 743 mmHg 73%
    16:00 +21°C° 1.4 mm 3 mps 743 mmHg 81%
    17:00 +20°C° 0.2 mm 3 mps 743 mmHg 81%
    18:00 +20°C° 0.2 mm 2 mps 743 mmHg 81%
    19:00 +20°C° 0.2 mm 2 mps 743 mmHg 81%
    20:00 +19°C° 0.7 mm 2 mps 743 mmHg 83%
    21:00 +20°C° 0.7 mm 1 mps 743 mmHg 86%
    22:00 +19°C° 0.7 mm 1 mps 744 mmHg 88%
    23:00 +19°C° 0 mm 1 mps 744 mmHg 90%

    29 May, Wednesday

    Time Temperature Precipitation Wind Pressure Humidity
    00:00 +17°C° 0 mm 2 mps 744 mmHg 92%
    01:00 +17°C° 0 mm 2 mps 744 mmHg 93%
    02:00 +16°C° 1 mm 3 mps 744 mmHg 93%
    03:00 +15°C° 1 mm 4 mps 745 mmHg 93%
    04:00 +15°C° 1 mm 4 mps 745 mmHg 93%
    05:00 +14°C° 0.4 mm 5 mps 745 mmHg 92%
    06:00 +13°C° 0.4 mm 5 mps 746 mmHg 91%
    07:00 +12°C° 0.4 mm 5 mps 746 mmHg 89%
    08:00 +11°C° 0.2 mm 6 mps 747 mmHg 89%
    09:00 +10°C° 0.2 mm 6 mps 747 mmHg 88%
    10:00 +10°C° 0.2 mm 6 mps 748 mmHg 88%
    11:00 +9°C° 0.2 mm 6 mps 748 mmHg 87%
    12:00 +9°C° 0.2 mm 6 mps 749 mmHg 86%
    13:00 +9°C° 0.2 mm 6 mps 750 mmHg 85%
    14:00 +9°C° 0.1 mm 6 mps 750 mmHg 84%
    15:00 +9°C° 0.1 mm 5 mps 751 mmHg 82%
    16:00 +9°C° 0.1 mm 5 mps 751 mmHg 81%
    17:00 +9°C° 0 mm 5 mps 752 mmHg 79%
    18:00 +10°C° 0 mm 4 mps 752 mmHg 78%
    19:00 +10°C° 0 mm 4 mps 753 mmHg 76%
    20:00 +10°C° 0 mm 3 mps 753 mmHg 77%
    21:00 +9°C° 0 mm 3 mps 754 mmHg 78%
    22:00 +8°C° 0 mm 3 mps 755 mmHg 78%
    23:00 +8°C° 0 mm 3 mps 755 mmHg 77%

    30 May, Thursday

    Time Temperature Precipitation Wind Pressure Humidity
    00:00 +7°C° 0 mm 3 mps 755 mmHg 76%
    01:00 +7°C° 0 mm 3 mps 755 mmHg 75%
    02:00 +7°C° 0 mm 3 mps 756 mmHg 74%
    03:00 +7°C° 0 mm 2 mps 756 mmHg 73%
    04:00 +7°C° 0 mm 2 mps 756 mmHg 73%
    05:00 +8°C° 0 mm 2 mps 756 mmHg 68%
    06:00 +9°C° 0 mm 2 mps 757 mmHg 63%
    07:00 +12°C° 0 mm 2 mps 757 mmHg 58%
    08:00 +13°C° 0 mm 2 mps 757 mmHg 52%
    09:00 +15°C° 0 mm 2 mps 757 mmHg 46%
    10:00 +16°C° 0 mm 2 mps 757 mmHg 40%
    11:00 +17°C° 0 mm 2 mps 757 mmHg 38%
    12:00 +18°C° 0 mm 2 mps 757 mmHg 36%
    13:00 +19°C° 0 mm 2 mps 757 mmHg 34%
    14:00 +19°C° 0 mm 2 mps 757 mmHg 35%
    15:00 +20°C° 0 mm 2 mps 756 mmHg 36%
    16:00 +21°C° 0 mm 1 mps 756 mmHg 36%
    17:00 +20°C° 0 mm 1 mps 756 mmHg 41%
    18:00 +18°C° 0 mm 1 mps 756 mmHg 46%
    19:00 +16°C° 0 mm 1 mps 756 mmHg 51%
    20:00 +15°C° 0 mm 1 mps 756 mmHg 54%
    21:00 +14°C° 0 mm 1 mps 756 mmHg 57%
    22:00 +13°C° 0 mm 1 mps 757 mmHg 60%
    23:00 +12°C° 0 mm 1 mps 756 mmHg 61%

    31 May, Friday

    Time Temperature Precipitation Wind Pressure Humidity
    00:00 +12°C° 0 mm 1 mps 756 mmHg 63%
    01:00 +11°C° 0 mm 1 mps 756 mmHg 65%
    02:00 +11°C° 0 mm 1 mps 755 mmHg 67%
    03:00 +11°C° 0 mm 1 mps 755 mmHg 68%
    04:00 +11°C° 0 mm 1 mps 755 mmHg 70%
    05:00 +12°C° 0 mm 2 mps 755 mmHg 66%
    06:00 +14°C° 0 mm 2 mps 754 mmHg 62%
    07:00 +16°C° 0 mm 2 mps 754 mmHg 58%
    08:00 +17°C° 0 mm 2 mps 754 mmHg 53%
    09:00 +19°C° 0 mm 2 mps 754 mmHg 48%
    10:00 +20°C° 0 mm 3 mps 753 mmHg 43%
    11:00 +21°C° 0 mm 3 mps 753 mmHg 42%
    12:00 +22°C° 0 mm 3 mps 753 mmHg 42%
    13:00 +22°C° 0 mm 3 mps 753 mmHg 41%
    14:00 +20°C° 0.2 mm 4 mps 753 mmHg 55%
    15:00 +16°C° 0.2 mm 5 mps 754 mmHg 70%
    16:00 +14°C° 0.2 mm 6 mps 754 mmHg 84%
    17:00 +11°C° 0.9 mm 6 mps 754 mmHg 82%
    18:00 +9°C° 0.9 mm 6 mps 755 mmHg 81%
    19:00 +7°C° 0.9 mm 6 mps 755 mmHg 79%
    20:00 +7°C° 0.1 mm 5 mps 756 mmHg 79%
    21:00 +7°C° 0.1 mm 5 mps 757 mmHg 78%
    22:00 +7°C° 0.1 mm 4 mps 757 mmHg 78%
    23:00 +7°C° 0 mm 4 mps 758 mmHg 80%
    Show more